sat.trackr.live / text

‹ back to catalog

STARLINK-36681

NORAD 68720 · 2026-081X

PAYLOAD ACTIVE UNKNOWN

§ Identity

Operator
Country
US
Launch date
2026-04-14
Launch site
AFETR
Launch vehicle
Mass (kg)
RCS (m²)

Purposes: comms

External: N2YO · Heavens-Above · Gunter

§ Orbital elements

Epoch: 2026-05-25T04:00:03.998880Z

Period
92.95 min
Inclination
53.1596°
Eccentricity
0.0001175
Mean motion
15.49251838 rev/d
Perigee alt
418.1 km
Apogee alt
419.7 km
Semi-major
6,797.1 km
B*
1.6511e-3
RAAN
39.0551°
Arg perigee
84.1299°
Mean anomaly
113.2376°
Rev number
601

§ Raw data

STARLINK-366811 68720U 26081X   26145.16671295  .00092285  00000+0  16511-2 0  99962 68720  53.1596  39.0551 0001175  84.1299 113.2376 15.49251838  6010

JSON: /api/v1/satellites/68720 · /tle

For live sub-satellite position, see the globe view (requires WebGL).

§ Visibility from observer

Set your observer location to see the next 7 days of passes ≥ 10°. The values pass through the URL so the page stays shareable.

No JS? Fill the form by hand. The geolocation button needs JavaScript.